Tracking 33198 objects as of 13-Feb-2026
HD Live streaming from Space Station
objects crossing your sky now

COSMOS 2088

Track COSMOS 2088 now!
10-day predictions
COSMOS 2088 is classified as:


NORAD ID: 20720
Int'l Code: 1990-066A
Perigee: 1,490.9 km
Apogee: 1,530.0 km
Inclination: 73.6 °
Period: 116.1 minutes
Semi major axis: 7881 km
RCS: 11.4565 m2 (large)
Launch date: July 30, 1990
Source: Commonwealth of Independent States (former USSR) (CIS)
Launch site: PLESETSK MISSILE AND SPACE COMPLEX (PKMTR)
Your satellite tracking list
Your tracking list is empty




NASA's NSSDC Master Catalog

Two Line Element Set (TLE):
1 20720U 90066A   26044.53129949 -.00000003  00000-0  10716-3 0  9992
2 20720  73.5977 196.5605 0024772  77.2706 348.2866 12.40781566609815
Source of the keplerian elements: AFSPC